,,,PA_Meas_PMT16A,,PR_Meas_QMR101_102,,RH_Meas_QMH101,,SR_Meas_QMS101,,TA_Meas_QMH101,,GenWind,,GenWind,
date,time,status,PA,status,PR,status,RH,status,SR,status,TA,status,DirAvg,status,SpdAvg,
2012-02-16, 00:00:04,VALID,998.47,VALID,0,VALID,93.3789,VALID,0,VALID,23.389,VALID,276,VALID,0.707422,
2012-02-16, 00:01:04,VALID,998.439,VALID,0,VALID,93.234,VALID,0,VALID,23.389,VALID,43,VALID,0.894141,
2012-02-16, 00:02:04,VALID,998.386,VALID,0,VALID,93.089,VALID,0,VALID,23.389,VALID,75,VALID,2.07656,
2012-02-16, 00:03:04,VALID,998.387,VALID,0,VALID,92.7533,VALID,0,VALID,23.4067,VALID,72,VALID,0.879687,
2012-02-16, 00:04:04,VALID,998.407,VALID,0,VALID,92.6465,VALID,0,VALID,23.4475,VALID,268,VALID,0.891797,
2012-02-16, 00:05:04,VALID,998.38,VALID,0,VALID,92.5626,VALID,0,VALID,23.4475,VALID,253,VALID,0.492969,
2012-02-16, 00:06:04,VALID,998.36,VALID,0,VALID,92.3031,VALID,0,VALID,23.4475,VALID,294,VALID,0.596094,
2012-02-16, 00:07:04,VALID,998.356,VALID,0,VALID,92.1277,VALID,0,VALID,23.4671,VALID,344,VALID,1.28945,
2012-02-16, 00:08:04,VALID,998.329,VALID,0,VALID,92.2192,VALID,0,VALID,23.4848,VALID,14,VALID,1.85039,
2012-02-16, 00:09:04,VALID,998.318,VALID,0,VALID,92.326,VALID,0,VALID,23.5061,VALID,45,VALID,1.06367,
2012-02-16, 00:10:04,VALID,998.312,VALID,0,VALID,91.8911,VALID,0,VALID,23.5061,VALID,53,VALID,1.33477,
2012-02-16, 00:11:04,VALID,998.314,VALID,0,VALID,92.0971,VALID,0,VALID,23.5043,VALID,67,VALID,1.71641,
2012-02-16, 00:12:04,VALID,998.264,VALID,0,VALID,92.2345,VALID,0,VALID,23.5043,VALID,71,VALID,1.26523,
2012-02-16, 00:13:04,VALID,998.313,VALID,0,VALID,92.5244,VALID,0,VALID,23.5256,VALID,84,VALID,1.05781,
2012-02-16, 00:14:04,VALID,998.281,VALID,0,VALID,92.6236,VALID,0,VALID,23.5043,VALID,100,VALID,0.75625,
2012-02-16, 00:15:04,VALID,998.28,VALID,0,VALID,92.616,VALID,0,VALID,23.5061,VALID,109,VALID,0.788672,
2012-02-16, 00:16:04,VALID,998.267,VALID,0,VALID,92.6388,VALID,0,VALID,23.4653,VALID,114,VALID,1.13672,
2012-02-16, 00:17:04,VALID,998.254,VALID,0,VALID,92.6694,VALID,0,VALID,23.4866,VALID,109,VALID,1.01406,
2012-02-16, 00:18:04,VALID,998.224,VALID,0,VALID,92.6007,VALID,0,VALID,23.4848,VALID,109,VALID,1.15781,
2012-02-16, 00:19:04,VALID,998.222,VALID,0,VALID,92.5931,VALID,0,VALID,23.4866,VALID,101,VALID,0.963281,
2012-02-16, 00:20:04,VALID,998.216,VALID,0,VALID,92.6617,VALID,0,VALID,23.5061,VALID,88,VALID,0.653125,
2012-02-16, 00:21:04,VALID,998.211,VALID,0,VALID,92.7151,VALID,0,VALID,23.4848,VALID,77,VALID,0.564062,
2012-02-16, 00:22:04,VALID,998.177,VALID,0,VALID,92.7762,VALID,0,VALID,23.4671,VALID,65,VALID,0.609766,
2012-02-16, 00:23:04,VALID,998.163,VALID,0,VALID,92.883,VALID,0,VALID,23.4866,VALID,66,VALID,0.58125,
2012-02-16, 00:24:04,VALID,998.158,VALID,0,VALID,92.9822,VALID,0,VALID,23.4475,VALID,82,VALID,0.430078,
2012-02-16, 00:25:04,VALID,998.138,VALID,0,VALID,93.1119,VALID,0,VALID,23.4263,VALID,108,VALID,0.772266,
2012-02-16, 00:26:04,VALID,998.164,VALID,0,VALID,93.2034,VALID,0,VALID,23.4475,VALID,118,VALID,0.867578,
2012-02-16, 00:27:04,VALID,998.127,VALID,0,VALID,93.2874,VALID,0,VALID,23.4475,VALID,111,VALID,0.602734,
2012-02-16, 00:28:04,VALID,998.102,VALID,0,VALID,93.3942,VALID,0,VALID,23.4475,VALID,104,VALID,1.02383,
2012-02-16, 00:29:04,VALID,998.105,VALID,0,VALID,93.4171,VALID,0,VALID,23.428,VALID,94,VALID,0.960938,
2012-02-16, 00:30:04,VALID,998.071,VALID,0,VALID,93.4781,VALID,0,VALID,23.428,VALID,100,VALID,0.508594,
2012-02-16, 00:31:04,VALID,998.062,VALID,0,VALID,93.501,VALID,0,VALID,23.4067,VALID,103,VALID,0.751562,
2012-02-16, 00:32:04,VALID,998.02,VALID,0,VALID,93.5391,VALID,0,VALID,23.428,VALID,112,VALID,0.789063,
2012-02-16, 00:33:04,VALID,998.034,VALID,0,VALID,93.562,VALID,0,VALID,23.4085,VALID,111,VALID,0.198047,
2012-02-16, 00:34:04,VALID,998.042,VALID,0,VALID,93.5773,VALID,0,VALID,23.4067,VALID,111,VALID,0.334375,
2012-02-16, 00:35:04,VALID,998.028,VALID,0,VALID,93.6078,VALID,0,VALID,23.4085,VALID,111,VALID,0.339063,
2012-02-16, 00:36:04,VALID,998.044,VALID,0,VALID,93.646,VALID,0,VALID,23.4085,VALID,110,VALID,0.604297,
2012-02-16, 00:37:04,VALID,998.007,VALID,0,VALID,93.6841,VALID,0,VALID,23.3872,VALID,343,VALID,0.588672,
2012-02-16, 00:38:04,VALID,997.998,VALID,0,VALID,93.707,VALID,0,VALID,23.389,VALID,343,VALID,0.319141,
2012-02-16, 00:39:04,VALID,997.987,VALID,0,VALID,93.707,VALID,0,VALID,23.389,VALID,40,VALID,0.773828,
2012-02-16, 00:40:04,VALID,997.923,VALID,0,VALID,93.6994,VALID,0,VALID,23.3482,VALID,65,VALID,1.23477,
2012-02-16, 00:41:04,VALID,997.924,VALID,0,VALID,93.6917,VALID,0,VALID,23.3695,VALID,79,VALID,1.41445,
2012-02-16, 00:42:04,VALID,997.922,VALID,0,VALID,93.7375,VALID,0,VALID,23.3287,VALID,85,VALID,0.921094,
2012-02-16, 00:43:04,VALID,997.919,VALID,0,VALID,93.7909,VALID,0,VALID,23.3695,VALID,97,VALID,0.522266,
2012-02-16, 00:44:04,VALID,997.914,VALID,0,VALID,93.8291,VALID,0,VALID,23.35,VALID,96,VALID,0.00351562,
2012-02-16, 00:45:04,VALID,997.916,VALID,0,VALID,93.8214,VALID,0,VALID,23.35,VALID,96,VALID,0.117188,
2012-02-16, 00:46:04,VALID,997.903,VALID,0,VALID,93.8291,VALID,0,VALID,23.3305,VALID,96,VALID,0.114063,
2012-02-16, 00:47:04,VALID,997.882,VALID,0,VALID,93.8214,VALID,0,VALID,23.3305,VALID,89,VALID,0.396094,
2012-02-16, 00:48:04,VALID,997.842,VALID,0,VALID,93.8367,VALID,0,VALID,23.3092,VALID,88,VALID,0.330469,
2012-02-16, 00:49:04,VALID,997.849,VALID,0,VALID,93.8367,VALID,0,VALID,23.2897,VALID,54,VALID,0.633594,
2012-02-16, 00:50:04,VALID,997.812,VALID,0,VALID,93.8138,VALID,0,VALID,23.311,VALID,47,VALID,0.785156,
2012-02-16, 00:51:04,VALID,997.824,VALID,0,VALID,93.768,VALID,0,VALID,23.2702,VALID,48,VALID,1.19453,
2012-02-16, 00:52:04,VALID,997.816,VALID,0,VALID,93.6994,VALID,0,VALID,23.2915,VALID,55,VALID,1.20625,
2012-02-16, 00:53:04,VALID,997.788,VALID,0,VALID,93.6765,VALID,0,VALID,23.2915,VALID,60,VALID,1.20781,
2012-02-16, 00:54:04,VALID,997.817,VALID,0,VALID,93.6765,VALID,0,VALID,23.2915,VALID,58,VALID,0.846094,
2012-02-16, 00:55:04,VALID,997.803,VALID,0,VALID,93.6536,VALID,0,VALID,23.2915,VALID,55,VALID,0.301953,
2012-02-16, 00:56:04,VALID,997.8,VALID,0,VALID,93.6688,VALID,0,VALID,23.2915,VALID,55,VALID,0.304297,
2012-02-16, 00:57:04,VALID,997.799,VALID,0,VALID,93.6688,VALID,0,VALID,23.2915,VALID,55,VALID,0.0703125,
2012-02-16, 00:58:04,VALID,997.791,VALID,0,VALID,93.6994,VALID,0,VALID,23.2915,VALID,55,VALID,0.453906,
2012-02-16, 00:59:04,VALID,997.79,VALID,0,VALID,93.7375,VALID,0,VALID,23.2915,VALID,86,VALID,0.600391,
2012-02-16, 01:00:04,VALID,997.754,VALID,0,VALID,93.8062,VALID,0,VALID,23.2915,VALID,95,VALID,0.978516,
2012-02-16, 01:01:04,VALID,997.747,VALID,0,VALID,93.768,VALID,0,VALID,23.2915,VALID,107,VALID,0.929297,
2012-02-16, 01:02:04,VALID,997.724,VALID,0,VALID,93.7833,VALID,0,VALID,23.2702,VALID,144,VALID,0.615234,
2012-02-16, 01:03:04,VALID,997.732,VALID,0,VALID,93.7604,VALID,0,VALID,23.2719,VALID,165,VALID,0.536328,
2012-02-16, 01:04:04,VALID,997.692,VALID,0,VALID,93.768,VALID,0,VALID,23.2507,VALID,169,VALID,0.321484,
2012-02-16, 01:05:04,VALID,997.711,VALID,0,VALID,93.7833,VALID,0,VALID,23.2719,VALID,169,VALID,0,
2012-02-16, 01:06:04,VALID,997.682,VALID,0,VALID,93.768,VALID,0,VALID,23.2524,VALID,169,VALID,0.152344,
2012-02-16, 01:07:04,VALID,997.657,VALID,0,VALID,93.8291,VALID,0,VALID,23.2719,VALID,155,VALID,0.495703,
2012-02-16, 01:08:04,VALID,997.643,VALID,0,VALID,93.8596,VALID,0,VALID,23.2524,VALID,90,VALID,0.830859,
2012-02-16, 01:09:04,VALID,997.609,VALID,0,VALID,93.8596,VALID,0,VALID,23.2312,VALID,87,VALID,2.17383,
2012-02-16, 01:10:04,VALID,997.657,VALID,0,VALID,93.6917,VALID,0,VALID,23.2312,VALID,82,VALID,2.18828,
2012-02-16, 01:11:04,VALID,997.658,VALID,0,VALID,93.4018,VALID,0,VALID,23.2719,VALID,84,VALID,1.62383,
2012-02-16, 01:12:04,VALID,997.687,VALID,0,VALID,93.2263,VALID,0,VALID,23.2702,VALID,15,VALID,0.759375,
2012-02-16, 01:13:04,VALID,997.651,VALID,0,VALID,93.1195,VALID,0,VALID,23.2897,VALID,15,VALID,0.625391,
2012-02-16, 01:14:04,VALID,997.66,VALID,0,VALID,93.089,VALID,0,VALID,23.311,VALID,15,VALID,0.727344,
2012-02-16, 01:15:04,VALID,997.625,VALID,0,VALID,92.8983,VALID,0,VALID,23.2702,VALID,54,VALID,0.7125,
2012-02-16, 01:16:04,VALID,997.587,VALID,0,VALID,92.8601,VALID,0,VALID,23.311,VALID,71,VALID,1.15,
2012-02-16, 01:17:04,VALID,997.599,VALID,0,VALID,92.883,VALID,0,VALID,23.3092,VALID,74,VALID,1.15625,
2012-02-16, 01:18:04,VALID,997.593,VALID,0,VALID,92.8754,VALID,0,VALID,23.2897,VALID,66,VALID,1.15586,
2012-02-16, 01:19:04,VALID,997.618,VALID,0,VALID,92.8906,VALID,0,VALID,23.3092,VALID,74,VALID,0.350781,
2012-02-16, 01:20:04,VALID,997.593,VALID,0,VALID,92.9288,VALID,0,VALID,23.2897,VALID,74,VALID,0.385938,
2012-02-16, 01:21:04,VALID,997.597,VALID,0,VALID,92.9898,VALID,0,VALID,23.2897,VALID,74,VALID,0.0351563,
2012-02-16, 01:22:04,VALID,997.569,VALID,0,VALID,93.028,VALID,0,VALID,23.2915,VALID,74,VALID,0,
2012-02-16, 01:23:04,VALID,997.551,VALID,0,VALID,93.0814,VALID,0,VALID,23.2719,VALID,74,VALID,0,
2012-02-16, 01:24:04,VALID,997.542,VALID,0,VALID,93.0814,VALID,0,VALID,23.2719,VALID,74,VALID,0,
2012-02-16, 01:25:04,VALID,997.566,VALID,0,VALID,93.1043,VALID,0,VALID,23.2524,VALID,74,VALID,0,
2012-02-16, 01:26:04,VALID,997.562,VALID,0,VALID,93.15,VALID,0,VALID,23.2312,VALID,75,VALID,0,
2012-02-16, 01:27:04,VALID,997.531,VALID,0,VALID,93.1805,VALID,0,VALID,23.2329,VALID,75,VALID,0.494141,
2012-02-16, 01:28:04,VALID,997.541,VALID,0,VALID,93.1729,VALID,0,VALID,23.2117,VALID,81,VALID,0.691016,
2012-02-16, 01:29:04,VALID,997.511,VALID,0,VALID,93.1882,VALID,0,VALID,23.2117,VALID,89,VALID,0.399219,
2012-02-16, 01:30:04,VALID,997.526,VALID,0,VALID,93.1882,VALID,0,VALID,23.2117,VALID,89,VALID,0.621094,
2012-02-16, 01:31:04,VALID,997.549,VALID,0,VALID,93.2187,VALID,0,VALID,23.1921,VALID,89,VALID,0.146094,
2012-02-16, 01:32:04,VALID,997.534,VALID,0,VALID,93.234,VALID,0,VALID,23.1921,VALID,89,VALID,0.0609375,
2012-02-16, 01:33:04,VALID,997.535,VALID,0,VALID,93.234,VALID,0,VALID,23.1726,VALID,73,VALID,0.364062,
2012-02-16, 01:34:04,VALID,997.503,VALID,0,VALID,93.2263,VALID,0,VALID,23.1726,VALID,73,VALID,0.132813,
2012-02-16, 01:35:04,VALID,997.514,VALID,0,VALID,93.234,VALID,0,VALID,23.1726,VALID,73,VALID,0,
2012-02-16, 01:36:04,VALID,997.521,VALID,0,VALID,93.2416,VALID,0,VALID,23.1531,VALID,73,VALID,0,
2012-02-16, 01:37:04,VALID,997.505,VALID,0,VALID,93.2797,VALID,0,VALID,23.1726,VALID,134,VALID,0.665234,
2012-02-16, 01:38:04,VALID,997.521,VALID,0,VALID,93.2797,VALID,0,VALID,23.1531,VALID,124,VALID,0.405078,
2012-02-16, 01:39:04,VALID,997.538,VALID,0,VALID,93.295,VALID,0,VALID,23.1744,VALID,124,VALID,0.595703,
2012-02-16, 01:40:04,VALID,997.506,VALID,0,VALID,93.295,VALID,0,VALID,23.1531,VALID,107,VALID,0.767969,
2012-02-16, 01:41:04,VALID,997.486,VALID,0,VALID,93.2797,VALID,0,VALID,23.1744,VALID,81,VALID,0.646094,
2012-02-16, 01:42:04,VALID,997.508,VALID,0,VALID,93.2797,VALID,0,VALID,23.1939,VALID,81,VALID,0.619141,
2012-02-16, 01:43:04,VALID,997.495,VALID,0,VALID,93.2874,VALID,0,VALID,23.1939,VALID,81,VALID,0.566797,
2012-02-16, 01:44:04,VALID,997.433,VALID,0,VALID,93.2492,VALID,0,VALID,23.1531,VALID,103,VALID,1.39805,
2012-02-16, 01:45:04,VALID,997.473,VALID,0,VALID,93.1577,VALID,0,VALID,23.1744,VALID,89,VALID,1.04805,
2012-02-16, 01:46:04,VALID,997.47,VALID,0,VALID,93.1195,VALID,0,VALID,23.1726,VALID,102,VALID,0.564844,
2012-02-16, 01:47:04,VALID,997.436,VALID,0,VALID,93.1119,VALID,0,VALID,23.1939,VALID,112,VALID,0.925,
2012-02-16, 01:48:04,VALID,997.456,VALID,0,VALID,93.089,VALID,0,VALID,23.1531,VALID,111,VALID,0.735547,
2012-02-16, 01:49:04,VALID,997.419,VALID,0,VALID,93.1348,VALID,0,VALID,23.1531,VALID,111,VALID,0.376563,
2012-02-16, 01:50:04,VALID,997.431,VALID,0,VALID,93.1653,VALID,0,VALID,23.1531,VALID,111,VALID,0.373437,
2012-02-16, 01:51:04,VALID,997.413,VALID,0,VALID,93.2111,VALID,0,VALID,23.1726,VALID,111,VALID,0,
2012-02-16, 01:52:04,VALID,997.41,VALID,0,VALID,93.234,VALID,0,VALID,23.1726,VALID,111,VALID,0,
2012-02-16, 01:53:04,VALID,997.393,VALID,0,VALID,93.2492,VALID,0,VALID,23.1531,VALID,111,VALID,0,
2012-02-16, 01:54:04,VALID,997.371,VALID,0,VALID,93.2492,VALID,0,VALID,23.1531,VALID,111,VALID,0,
2012-02-16, 01:55:04,VALID,997.416,VALID,0,VALID,93.2874,VALID,0,VALID,23.1336,VALID,111,VALID,0,
2012-02-16, 01:56:04,VALID,997.371,VALID,0,VALID,93.3331,VALID,0,VALID,23.1336,VALID,111,VALID,0,
2012-02-16, 01:57:04,VALID,997.395,VALID,0,VALID,93.3255,VALID,0,VALID,23.1549,VALID,111,VALID,0.358203,
2012-02-16, 01:58:04,VALID,997.354,VALID,0,VALID,93.3331,VALID,0,VALID,23.1336,VALID,111,VALID,0.518359,
2012-02-16, 01:59:04,VALID,997.355,VALID,0,VALID,93.356,VALID,0,VALID,23.1336,VALID,111,VALID,0.571875,
2012-02-16, 02:00:04,VALID,997.358,VALID,0,VALID,93.3408,VALID,0,VALID,23.1336,VALID,107,VALID,0.807422,
2012-02-16, 02:01:04,VALID,997.394,VALID,0,VALID,93.3026,VALID,0,VALID,23.1336,VALID,98,VALID,0.669531,
2012-02-16, 02:02:04,VALID,997.366,VALID,0,VALID,93.3026,VALID,0,VALID,23.1354,VALID,98,VALID,0.506641,
2012-02-16, 02:03:04,VALID,997.389,VALID,0,VALID,93.295,VALID,0,VALID,23.1141,VALID,99,VALID,0.170703,
2012-02-16, 02:04:04,VALID,997.389,VALID,0,VALID,93.2721,VALID,0,VALID,23.1141,VALID,99,VALID,0.109766,
2012-02-16, 02:05:04,VALID,997.357,VALID,0,VALID,93.3026,VALID,0,VALID,23.1141,VALID,99,VALID,0,
2012-02-16, 02:06:04,VALID,997.367,VALID,0,VALID,93.3408,VALID,0,VALID,23.1141,VALID,99,VALID,0.266016,
2012-02-16, 02:07:04,VALID,997.373,VALID,0,VALID,93.3942,VALID,0,VALID,23.1141,VALID,101,VALID,0.176563,
2012-02-16, 02:08:04,VALID,997.346,VALID,0,VALID,93.4018,VALID,0,VALID,23.0946,VALID,118,VALID,0.344922,
2012-02-16, 02:09:04,VALID,997.356,VALID,0,VALID,93.3713,VALID,0,VALID,23.0946,VALID,100,VALID,1.16328,
2012-02-16, 02:10:04,VALID,997.372,VALID,0,VALID,93.3026,VALID,0,VALID,23.0751,VALID,111,VALID,0.635547,
2012-02-16, 02:11:04,VALID,997.355,VALID,0,VALID,93.2721,VALID,0,VALID,23.0946,VALID,118,VALID,0.348047,
2012-02-16, 02:12:04,VALID,997.371,VALID,0,VALID,93.2797,VALID,0,VALID,23.0946,VALID,120,VALID,0.759375,
2012-02-16, 02:13:04,VALID,997.355,VALID,0,VALID,93.2797,VALID,0,VALID,23.1159,VALID,119,VALID,0.467969,
2012-02-16, 02:14:04,VALID,997.348,VALID,0,VALID,93.2721,VALID,0,VALID,23.0946,VALID,111,VALID,0.630859,
2012-02-16, 02:15:04,VALID,997.328,VALID,0,VALID,93.2721,VALID,0,VALID,23.0946,VALID,109,VALID,0.544531,
2012-02-16, 02:16:04,VALID,997.317,VALID,0,VALID,93.2797,VALID,0,VALID,23.0946,VALID,111,VALID,0.557031,
2012-02-16, 02:17:04,VALID,997.328,VALID,0,VALID,93.2874,VALID,0,VALID,23.0946,VALID,107,VALID,0.481641,
2012-02-16, 02:18:04,VALID,997.286,VALID,0,VALID,93.3331,VALID,0,VALID,23.1354,VALID,88,VALID,0.735547,
2012-02-16, 02:19:04,VALID,997.306,VALID,0,VALID,93.356,VALID,0,VALID,23.1141,VALID,82,VALID,0.627344,
2012-02-16, 02:20:04,VALID,997.289,VALID,0,VALID,93.3331,VALID,0,VALID,23.1141,VALID,49,VALID,0.876953,
2012-02-16, 02:21:04,VALID,997.315,VALID,0,VALID,93.3179,VALID,0,VALID,23.1141,VALID,49,VALID,0.671875,
2012-02-16, 02:22:04,VALID,997.319,VALID,0,VALID,93.3026,VALID,0,VALID,23.1141,VALID,49,VALID,0.56875,
2012-02-16, 02:23:04,VALID,997.306,VALID,0,VALID,93.3179,VALID,0,VALID,23.1141,VALID,49,VALID,0.508594,
2012-02-16, 02:24:04,VALID,997.312,VALID,0,VALID,93.4094,VALID,0,VALID,23.1141,VALID,45,VALID,0.550391,
2012-02-16, 02:25:04,VALID,997.334,VALID,0,VALID,93.4552,VALID,0,VALID,23.1141,VALID,45,VALID,0.321875,
2012-02-16, 02:26:04,VALID,997.339,VALID,0,VALID,93.4628,VALID,0,VALID,23.1141,VALID,45,VALID,0.169141,
2012-02-16, 02:27:04,VALID,997.327,VALID,0,VALID,93.4247,VALID,0,VALID,23.1141,VALID,45,VALID,0,
2012-02-16, 02:28:04,VALID,997.299,VALID,0,VALID,93.4247,VALID,0,VALID,23.1354,VALID,45,VALID,0,
2012-02-16, 02:29:04,VALID,997.333,VALID,0,VALID,93.4323,VALID,0,VALID,23.1141,VALID,45,VALID,0,
2012-02-16, 02:30:04,VALID,997.339,VALID,0,VALID,93.44,VALID,0,VALID,23.0946,VALID,45,VALID,0,
2012-02-16, 02:31:04,VALID,997.305,VALID,0,VALID,93.4018,VALID,0,VALID,23.0946,VALID,45,VALID,0,
2012-02-16, 02:32:04,VALID,997.309,VALID,0,VALID,93.356,VALID,0,VALID,23.0946,VALID,53,VALID,0.304688,
2012-02-16, 02:33:04,VALID,997.308,VALID,0,VALID,93.3408,VALID,0,VALID,23.0751,VALID,53,VALID,0.456641,
2012-02-16, 02:34:04,VALID,997.304,VALID,0,VALID,93.3179,VALID,0,VALID,23.1159,VALID,53,VALID,0.399609,
2012-02-16, 02:35:04,VALID,997.276,VALID,0,VALID,93.3713,VALID,0,VALID,23.0946,VALID,54,VALID,0.518359,
2012-02-16, 02:36:04,VALID,997.257,VALID,0,VALID,93.4628,VALID,0,VALID,23.1141,VALID,52,VALID,0.661719,
2012-02-16, 02:37:04,VALID,997.295,VALID,0,VALID,93.4934,VALID,0,VALID,23.0946,VALID,52,VALID,0.426172,
2012-02-16, 02:38:04,VALID,997.27,VALID,0,VALID,93.5315,VALID,0,VALID,23.0946,VALID,52,VALID,0.497266,
2012-02-16, 02:39:04,VALID,997.266,VALID,0,VALID,93.6002,VALID,0,VALID,23.0946,VALID,52,VALID,0,
2012-02-16, 02:40:04,VALID,997.315,VALID,0,VALID,93.6154,VALID,0,VALID,23.0946,VALID,52,VALID,0,
2012-02-16, 02:41:04,VALID,997.279,VALID,0,VALID,93.6307,VALID,0,VALID,23.0946,VALID,52,VALID,0,
2012-02-16, 02:42:04,VALID,997.311,VALID,0,VALID,93.6536,VALID,0,VALID,23.0946,VALID,52,VALID,0.210938,
2012-02-16, 02:43:04,VALID,997.31,VALID,0,VALID,93.6612,VALID,0,VALID,23.0751,VALID,52,VALID,0.417578,
2012-02-16, 02:44:04,VALID,997.325,VALID,0,VALID,93.6765,VALID,0,VALID,23.0751,VALID,52,VALID,0.407422,
2012-02-16, 02:45:04,VALID,997.293,VALID,0,VALID,93.707,VALID,0,VALID,23.0751,VALID,52,VALID,0.426172,
2012-02-16, 02:46:04,VALID,997.325,VALID,0,VALID,93.7223,VALID,0,VALID,23.0556,VALID,52,VALID,0.524609,
2012-02-16, 02:47:04,VALID,997.324,VALID,0,VALID,93.7299,VALID,0,VALID,23.0556,VALID,38,VALID,0.511719,
2012-02-16, 02:48:04,VALID,997.333,VALID,0,VALID,93.6994,VALID,0,VALID,23.0556,VALID,17,VALID,0.310156,
2012-02-16, 02:49:04,VALID,997.321,VALID,0,VALID,93.7223,VALID,0,VALID,23.0361,VALID,17,VALID,0.440234,
2012-02-16, 02:50:04,VALID,997.326,VALID,0,VALID,93.7375,VALID,0,VALID,23.0378,VALID,17,VALID,0.421094,
2012-02-16, 02:51:04,VALID,997.341,VALID,0,VALID,93.7451,VALID,0,VALID,23.0573,VALID,17,VALID,0.195313,
2012-02-16, 02:52:04,VALID,997.329,VALID,0,VALID,93.7757,VALID,0,VALID,23.0573,VALID,17,VALID,0,
2012-02-16, 02:53:04,VALID,997.348,VALID,0,VALID,93.768,VALID,0,VALID,23.0378,VALID,17,VALID,0,
2012-02-16, 02:54:04,VALID,997.327,VALID,0,VALID,93.8062,VALID,0,VALID,23.0378,VALID,17,VALID,0,
2012-02-16, 02:55:04,VALID,997.349,VALID,0,VALID,93.8214,VALID,0,VALID,23.0378,VALID,25,VALID,0,
2012-02-16, 02:56:04,VALID,997.324,VALID,0,VALID,93.7604,VALID,0,VALID,23.0183,VALID,89,VALID,1.61797,
2012-02-16, 02:57:04,VALID,997.335,VALID,0,VALID,93.5849,VALID,0,VALID,23.0183,VALID,101,VALID,0.917188,
2012-02-16, 02:58:04,VALID,997.334,VALID,0,VALID,93.4094,VALID,0,VALID,23.0591,VALID,96,VALID,0.278906,
2012-02-16, 02:59:04,VALID,997.336,VALID,0,VALID,93.2874,VALID,0,VALID,23.0573,VALID,104,VALID,0.635156,
2012-02-16, 03:00:04,VALID,997.381,VALID,0,VALID,93.1882,VALID,0,VALID,23.0573,VALID,143,VALID,0.330078,
2012-02-16, 03:01:04,VALID,997.352,VALID,0,VALID,93.0737,VALID,0,VALID,23.0769,VALID,143,VALID,0.301172,
2012-02-16, 03:02:04,VALID,997.34,VALID,0,VALID,93.0127,VALID,0,VALID,23.0573,VALID,143,VALID,0,
2012-02-16, 03:03:04,VALID,997.38,VALID,0,VALID,92.9364,VALID,0,VALID,23.0769,VALID,143,VALID,0,
2012-02-16, 03:04:04,VALID,997.367,VALID,0,VALID,92.9517,VALID,0,VALID,23.0769,VALID,131,VALID,0.1625,
2012-02-16, 03:05:04,VALID,997.369,VALID,0,VALID,92.9059,VALID,0,VALID,23.0769,VALID,118,VALID,0.616797,
2012-02-16, 03:06:04,VALID,997.381,VALID,0,VALID,92.8677,VALID,0,VALID,23.0751,VALID,118,VALID,0.713281,
2012-02-16, 03:07:04,VALID,997.382,VALID,0,VALID,92.6465,VALID,0,VALID,23.0964,VALID,85,VALID,0.862109,
2012-02-16, 03:08:04,VALID,997.393,VALID,0,VALID,92.6388,VALID,0,VALID,23.1354,VALID,80,VALID,0.807422,
2012-02-16, 03:09:04,VALID,997.418,VALID,0,VALID,92.677,VALID,0,VALID,23.1549,VALID,94,VALID,0.903125,
2012-02-16, 03:10:04,VALID,997.434,VALID,0,VALID,92.677,VALID,0,VALID,23.1354,VALID,46,VALID,1.01602,
2012-02-16, 03:11:04,VALID,997.439,VALID,0,VALID,92.6617,VALID,0,VALID,23.1354,VALID,36,VALID,0.5625,
2012-02-16, 03:12:04,VALID,997.416,VALID,0,VALID,92.6923,VALID,0,VALID,23.1159,VALID,36,VALID,0.302344,
2012-02-16, 03:13:04,VALID,997.466,VALID,0,VALID,92.7533,VALID,0,VALID,23.1354,VALID,36,VALID,0,
2012-02-16, 03:14:04,VALID,997.488,VALID,0,VALID,92.8296,VALID,0,VALID,23.1354,VALID,36,VALID,0,
2012-02-16, 03:15:04,VALID,997.457,VALID,0,VALID,92.9135,VALID,0,VALID,23.0946,VALID,36,VALID,0,
2012-02-16, 03:16:04,VALID,997.463,VALID,0,VALID,92.9745,VALID,0,VALID,23.1159,VALID,36,VALID,0.334766,
2012-02-16, 03:17:04,VALID,997.439,VALID,0,VALID,92.9745,VALID,0,VALID,23.1159,VALID,36,VALID,0.370703,
2012-02-16, 03:18:04,VALID,997.468,VALID,0,VALID,92.9288,VALID,0,VALID,23.0964,VALID,36,VALID,0.392578,
2012-02-16, 03:19:04,VALID,997.453,VALID,0,VALID,92.9288,VALID,0,VALID,23.1141,VALID,37,VALID,0.407422,
2012-02-16, 03:20:04,VALID,997.447,VALID,0,VALID,92.883,VALID,0,VALID,23.0946,VALID,88,VALID,0.558594,
2012-02-16, 03:21:04,VALID,997.45,VALID,0,VALID,92.8906,VALID,0,VALID,23.0946,VALID,88,VALID,0.450391,
2012-02-16, 03:22:04,VALID,997.459,VALID,0,VALID,92.8677,VALID,0,VALID,23.1141,VALID,88,VALID,0.582812,
2012-02-16, 03:23:04,VALID,997.453,VALID,0,VALID,92.8677,VALID,0,VALID,23.1141,VALID,88,VALID,0.694531,
2012-02-16, 03:24:04,VALID,997.479,VALID,0,VALID,92.8525,VALID,0,VALID,23.1141,VALID,88,VALID,0.202734,
2012-02-16, 03:25:04,VALID,997.445,VALID,0,VALID,92.8448,VALID,0,VALID,23.1141,VALID,88,VALID,0,
2012-02-16, 03:26:04,VALID,997.471,VALID,0,VALID,92.7991,VALID,0,VALID,23.1141,VALID,88,VALID,0,
2012-02-16, 03:27:04,VALID,997.452,VALID,0,VALID,92.7914,VALID,0,VALID,23.1141,VALID,88,VALID,0,
2012-02-16, 03:28:04,VALID,997.46,VALID,0,VALID,92.7991,VALID,0,VALID,23.1141,VALID,88,VALID,0,
2012-02-16, 03:29:04,VALID,997.435,VALID,0,VALID,92.7991,VALID,0.104696,VALID,23.1141,VALID,87,VALID,0,
2012-02-16, 03:30:04,VALID,997.454,VALID,0,VALID,92.9059,VALID,0,VALID,23.1336,VALID,87,VALID,0,
2012-02-16, 03:31:04,VALID,997.436,VALID,0,VALID,92.9288,VALID,0,VALID,23.1336,VALID,87,VALID,0,
2012-02-16, 03:32:04,VALID,997.441,VALID,0,VALID,92.9364,VALID,0.104696,VALID,23.1141,VALID,87,VALID,0,
2012-02-16, 03:33:04,VALID,997.469,VALID,0,VALID,93.0127,VALID,0,VALID,23.1141,VALID,87,VALID,0,
2012-02-16, 03:34:04,VALID,997.48,VALID,0,VALID,93.028,VALID,0,VALID,23.0964,VALID,87,VALID,0,
2012-02-16, 03:35:04,VALID,997.503,VALID,0,VALID,93.0737,VALID,0,VALID,23.0751,VALID,87,VALID,0,
2012-02-16, 03:36:04,VALID,997.509,VALID,0,VALID,93.1195,VALID,0,VALID,23.0964,VALID,87,VALID,0,
2012-02-16, 03:37:04,VALID,997.538,VALID,0,VALID,93.2187,VALID,0,VALID,23.0964,VALID,87,VALID,0,
2012-02-16, 03:38:04,VALID,997.526,VALID,0,VALID,93.2874,VALID,0,VALID,23.1176,VALID,87,VALID,0,
2012-02-16, 03:39:04,VALID,997.55,VALID,0,VALID,93.3331,VALID,0,VALID,23.0769,VALID,87,VALID,0,
2012-02-16, 03:40:04,VALID,997.54,VALID,0,VALID,93.3789,VALID,0,VALID,23.0964,VALID,87,VALID,0,
2012-02-16, 03:41:04,VALID,997.549,VALID,0,VALID,93.4171,VALID,0,VALID,23.0751,VALID,87,VALID,0,
2012-02-16, 03:42:04,VALID,997.539,VALID,0,VALID,93.4552,VALID,0,VALID,23.0769,VALID,87,VALID,0,
2012-02-16, 03:43:04,VALID,997.513,VALID,0,VALID,93.4552,VALID,0,VALID,23.0769,VALID,87,VALID,0,
2012-02-16, 03:44:04,VALID,997.55,VALID,0,VALID,93.4781,VALID,0,VALID,23.0573,VALID,87,VALID,0,
2012-02-16, 03:45:04,VALID,997.527,VALID,0,VALID,93.4934,VALID,0,VALID,23.0769,VALID,87,VALID,0,
2012-02-16, 03:46:04,VALID,997.539,VALID,0,VALID,93.501,VALID,0,VALID,23.0573,VALID,87,VALID,0,
2012-02-16, 03:47:04,VALID,997.557,VALID,0,VALID,93.5468,VALID,0,VALID,23.0573,VALID,87,VALID,0,
2012-02-16, 03:48:04,VALID,997.569,VALID,0,VALID,93.562,VALID,0,VALID,23.0573,VALID,87,VALID,0,
2012-02-16, 03:49:04,VALID,997.559,VALID,0,VALID,93.5926,VALID,0,VALID,23.0591,VALID,87,VALID,0,